FENGYUN 1C DEB, 30660

Orbit data source: Space-Track

FENGYUN 1C DEB, 30660 is space debris in SSO originally from a launch on Mon, 10 May 1999 UTC launched from the Taiyaun Space Center, China (TSC). Fengyun 1C debris stems from the Chinese weather satellite Fengyun-1C, which was intentionally destroyed by a Chinese anti-satellite missile in 2007. This event dramatically increased the amount of space debris, with thousands of trackable fragments posing hazards to satellites and human spaceflight. The Fengyun 1C debris cloud has become a focal point in discussions about space sustainability and the need for international regulations to prevent the creation of new debris.

Loading next visibility...
Identifier
30660, 1999-025APS
Orbit
SSO
Country
Flag of CNCN / PRC
Related business
Manufacturer
Unknown
Mission
Spacecraft
Bus & Motor
Unknown
Mass
Unknown
Launch date (UTC)
1999-05-10 (27 years ago)
Launch vehicle
Unknown
Launch site
Taiyaun Space Center, China (TSC)
Object type
Payload
Rocket body
Debris
Shape & HBR
Unknown shape, 0.1 m
Radar Cross Section
Small (<0.1 m²)

Expand to show TLE details & history
Last TLE update: 11 hours ago

TLE from 11 hours ago
0 FENGYUN 1C DEB
1 30660U 99025APS 26177.78261591  .00005477  00000-0  47956-3 0  9999
2 30660  98.1422 284.8014 0131009  52.9417  96.7757 14.90704905 37024
Epoch: 2026-06-26T18:46Z
TLE epoch observation values (Epoch: 2026-06-26T18:46:58.014Z)
Latitude
28.52469°
Longitude
-87.41085°
Altitude
611.305 km
Speed
7.55 km/s
True Right ascension
07h 16m 56s
True Declination
28° 22' 39"
Sunlit
Object was in daylight at epoch
Visualization orbit readout
Latitude
Unknown
Longitude
Unknown
Altitude
Unknown
Speed
Unknown
Apparent Right ascension
Unknown
Apparent Declination
Unknown
Sunlit
N/A
Visualization observer readout
Local Sidereal Time
16:41:43
Azimuth
Unknown
Elevation
Unknown
Doppler factor
Unknown
Orbital elements
Apogee altitude
684.098 km
Perigee altitude
501.448 km
Semi-major axis
6,970.91 km
Eccentricity
0.0131
Inclination
98.1422°
RAAN
284.8014°
Arg. of periapsis
52.9417°
True anomaly
98.26343°
Mean anomaly
96.7757°
Eccentric anomaly
97.51987°
Mean motion
3.72914 °/min
Orbital period
96.54 mins
BSTAR
0.00047956
Loading maneuver chart data...
Computing Atmospheric mass density...

Documentation

Showing up to 5 results
|